Weather History for K08D - February, 2013

Change the Weather History Date:

Thursday, February 28, 2013

  Actual Average (KMOT) Record (KMOT)
Temperature  
Mean Temperature 19 °F 21 °F  
Max Temperature 24 °F 29 °F 61 °F (1932)
Min Temperature 14 °F 13 °F -31 °F (1962)
Degree Days  
Heating Degree Days 46 44  
Month to date heating degree days 1345  
Since 1 July heating degree days 6576  
Moisture  
Dew Point 18 °F    
Average Humidity 95    
Maximum Humidity 100    
Minimum Humidity 86    
Precipitation  
Precipitation 0.02 in 0.02 in 0.38 in (1998)
Month to date precipitation 0.40  
Year to date precipitation 0.91  
Sea Level Pressure  
Sea Level Pressure 30.23 in    
Wind  
Wind Speed 5 mph (SE)    
Max Wind Speed 14 mph    
Max Gust Speed 16 mph    
Visibility 10 miles    
Events Snow    
T = Trace of Precipitation, MM = Missing Value Source: NWS Daily Summary

Daily Weather History Graph

Daily Weather History Graph

Search for Another Location

Airport or City:

Trip Planner

Search our weather history database for the weather conditions in past years. The results will help you decide how hot, cold, wet, or windy it might be!

Date:

Astronomy

Feb. 28, 2013 Rise Set
Actual Time 7:32 AM CST 6:32 PM CST
Civil Twilight 7:00 AM CST 7:04 PM CST
Nautical Twilight 6:24 AM CST 7:40 PM CST
Astronomical Twilight 5:48 AM CST 8:16 PM CST
Moon 10:23 PM CST (2/28) 8:24 AM CST (2/28)
Length of Visible Light 12h 03m
Length of Day
11h 00m
Waning Gibbous, 90% of the Moon is Illuminated
Feb 28
Waning Gibbous
Mar 4
Last Quarter
Mar 11
New
Mar 19
First Quarter
Mar 27
Full

Hourly Weather History & Observations

Time (CST) Temp. Windchill Dew Point Humidity Pressure Visibility Wind Dir Wind Speed Gust Speed Precip Events Conditions
12:15 AM 17.6 °F 12.3 °F 15.8 °F 93% 30.27 in 10.0 mi North 3.5 mph - N/A   Overcast
12:35 AM 17.6 °F - 15.8 °F 93% 30.27 in 10.0 mi Calm Calm - N/A   Overcast
1:15 AM 17.6 °F - 15.8 °F 93% 30.27 in 10.0 mi Calm Calm - N/A   Overcast
1:35 AM 17.6 °F - 15.8 °F 93% 30.26 in 10.0 mi Calm Calm - N/A   Mostly Cloudy
1:55 AM 15.8 °F 10.2 °F 15.8 °F 100% 30.26 in 10.0 mi North 3.5 mph - N/A   Overcast
2:15 AM 15.8 °F 10.2 °F 15.8 °F 100% 30.26 in 10.0 mi ENE 3.5 mph - N/A   Overcast
2:35 AM 17.6 °F 12.3 °F 15.8 °F 93% 30.25 in 10.0 mi ENE 3.5 mph - N/A   Overcast
2:55 AM 17.6 °F 10.7 °F 15.8 °F 93% 30.24 in 10.0 mi ENE 4.6 mph - N/A   Overcast
3:15 AM 17.6 °F 10.7 °F 15.8 °F 93% 30.24 in 10.0 mi East 4.6 mph - N/A   Overcast
3:35 AM 15.8 °F 6.1 °F 14.0 °F 93% 30.24 in 10.0 mi East 6.9 mph - N/A   Overcast
3:55 AM 15.8 °F 8.6 °F 14.0 °F 93% 30.24 in 10.0 mi ESE 4.6 mph - N/A   Overcast
4:35 AM 15.8 °F - 14.0 °F 93% 30.25 in 10.0 mi Calm Calm - N/A   Overcast
4:55 AM 14.0 °F - 14.0 °F 100% 30.25 in 10.0 mi Calm Calm - N/A   Overcast
5:15 AM 15.8 °F - 14.0 °F 93% 30.25 in 10.0 mi Calm Calm - N/A   Overcast
5:35 AM 14.0 °F - 14.0 °F 100% 30.25 in 10.0 mi Calm Calm - N/A   Overcast
5:55 AM 14.0 °F 8.2 °F 14.0 °F 100% 30.24 in 10.0 mi ESE 3.5 mph - N/A   Overcast
6:15 AM 14.0 °F 5.1 °F 14.0 °F 100% 30.24 in 10.0 mi ESE 5.8 mph - N/A   Overcast
6:35 AM 15.8 °F 10.2 °F 14.0 °F 93% 30.25 in 10.0 mi ESE 3.5 mph - N/A   Overcast
6:55 AM 14.0 °F 6.5 °F 14.0 °F 100% 30.25 in 10.0 mi East 4.6 mph - N/A   Overcast
7:15 AM 14.0 °F 6.5 °F 14.0 °F 100% 30.25 in 10.0 mi East 4.6 mph - N/A   Overcast
7:35 AM 14.0 °F 8.2 °F 14.0 °F 100% 30.25 in 10.0 mi SSE 3.5 mph - N/A   Overcast
7:55 AM 14.0 °F - 14.0 °F 100% 30.25 in 10.0 mi Calm Calm - N/A   Overcast
8:15 AM 14.0 °F - 14.0 °F 100% 30.24 in 10.0 mi Calm Calm - N/A   Overcast
8:35 AM 14.0 °F - 12.2 °F 93% 30.25 in 10.0 mi Calm Calm - N/A   Overcast
8:55 AM 14.0 °F 8.2 °F 12.2 °F 93% 30.25 in 10.0 mi ESE 3.5 mph - N/A   Mostly Cloudy
9:15 AM 14.0 °F 6.5 °F 12.2 °F 93% 30.24 in 10.0 mi ESE 4.6 mph - N/A   Clear
9:35 AM 14.0 °F 6.5 °F 14.0 °F 100% 30.24 in 10.0 mi SE 4.6 mph - N/A   Clear
9:55 AM 15.8 °F 6.1 °F 14.0 °F 93% 30.24 in 10.0 mi ESE 6.9 mph - N/A   Clear
10:15 AM 15.8 °F 5.1 °F 14.0 °F 93% 30.23 in 10.0 mi SE 8.1 mph - N/A   Clear
10:35 AM 17.6 °F 8.2 °F 15.8 °F 93% 30.23 in 10.0 mi SSE 6.9 mph - N/A   Clear
10:55 AM 19.4 °F 9.5 °F 15.8 °F 86% 30.24 in 10.0 mi SSE 8.1 mph - N/A   Clear
11:15 AM 19.4 °F 8.6 °F 17.6 °F 93% 30.24 in 10.0 mi South 9.2 mph - N/A   Scattered Clouds
11:35 AM 19.4 °F 7.9 °F 19.4 °F 100% 30.23 in 10.0 mi South 10.4 mph - N/A   Mostly Cloudy
11:55 AM 21.2 °F 10.9 °F 19.4 °F 93% 30.23 in 10.0 mi SSE 9.2 mph - N/A   Mostly Cloudy
12:15 PM 23.0 °F 11.7 °F 19.4 °F 86% 30.23 in - SSE 11.5 mph - N/A   Mostly Cloudy
12:35 PM 23.0 °F 11.7 °F 19.4 °F 86% 30.22 in - SSE 11.5 mph - N/A   Unknown
12:55 PM 23.0 °F 11.7 °F 19.4 °F 86% 30.22 in - SSE 11.5 mph - N/A   Unknown
1:15 PM 23.0 °F 11.7 °F 19.4 °F 86% 30.21 in 10.0 mi SSE 11.5 mph - N/A   Mostly Cloudy
1:35 PM 23.0 °F 11.1 °F 21.2 °F 93% 30.20 in - SE 12.7 mph - N/A   Mostly Cloudy
1:55 PM 24.8 °F 13.4 °F 21.2 °F 86% 30.20 in 10.0 mi SSE 12.7 mph - N/A   Mostly Cloudy
2:15 PM 24.8 °F 13.4 °F 21.2 °F 86% 30.20 in 10.0 mi SSE 12.7 mph - N/A   Mostly Cloudy
2:35 PM 24.8 °F 14.0 °F 23.0 °F 93% 30.20 in - SSE 11.5 mph - N/A   Overcast
3:15 PM 24.8 °F 13.4 °F 23.0 °F 93% 30.19 in 10.0 mi SSE 12.7 mph - N/A   Overcast
3:35 PM 24.8 °F 14.0 °F 23.0 °F 93% 30.20 in 10.0 mi SSE 11.5 mph - N/A   Overcast
3:55 PM 24.8 °F 14.0 °F 23.0 °F 93% 30.19 in 10.0 mi SE 11.5 mph - N/A   Overcast
4:15 PM 24.8 °F 12.9 °F 23.0 °F 93% 30.19 in 10.0 mi SE 13.8 mph - N/A   Mostly Cloudy
4:35 PM 24.8 °F 13.4 °F 23.0 °F 93% 30.18 in 10.0 mi SE 12.7 mph - N/A   Mostly Cloudy
4:55 PM 24.8 °F 12.9 °F 23.0 °F 93% 30.19 in 10.0 mi SE 13.8 mph - N/A   Mostly Cloudy
5:15 PM 24.8 °F 14.0 °F 23.0 °F 93% 30.20 in 10.0 mi SE 11.5 mph - N/A   Mostly Cloudy
5:55 PM 24.8 °F 13.4 °F 23.0 °F 93% 30.20 in 3.0 mi SE 12.7 mph - N/A Snow Light Snow
6:15 PM 23.0 °F 11.1 °F 23.0 °F 100% 30.20 in 1.5 mi SE 12.7 mph - 0.01 in Snow Light Snow
6:35 PM 23.0 °F 12.4 °F 23.0 °F 100% 30.20 in 8.0 mi SE 10.4 mph - 0.02 in Snow Light Snow
6:55 PM 23.0 °F 13.1 °F 23.0 °F 100% 30.21 in 10.0 mi ESE 9.2 mph - 0.02 in Snow Light Snow
7:15 PM 23.0 °F 12.4 °F 23.0 °F 100% 30.21 in 10.0 mi ESE 10.4 mph - N/A   Mostly Cloudy
7:35 PM 23.0 °F 13.1 °F 23.0 °F 100% 30.21 in 10.0 mi ESE 9.2 mph - N/A   Mostly Cloudy
8:15 PM 23.0 °F 11.7 °F 23.0 °F 100% 30.20 in 10.0 mi ESE 11.5 mph - N/A   Overcast
8:35 PM 23.0 °F 11.7 °F 23.0 °F 100% 30.21 in 10.0 mi SE 11.5 mph 16.1 mph N/A   Overcast
8:55 PM 23.0 °F 13.1 °F 23.0 °F 100% 30.21 in 10.0 mi SE 9.2 mph - N/A   Overcast
9:15 PM 23.0 °F 12.4 °F 23.0 °F 100% 30.21 in 10.0 mi SE 10.4 mph - N/A   Overcast
9:35 PM 23.0 °F 15.8 °F 23.0 °F 100% 30.22 in 10.0 mi East 5.8 mph - N/A   Overcast
9:55 PM 23.0 °F 14.7 °F 23.0 °F 100% 30.22 in 10.0 mi East 6.9 mph - N/A   Overcast
10:15 PM 21.2 °F 12.6 °F 21.2 °F 100% 30.22 in 10.0 mi ESE 6.9 mph - N/A   Overcast
10:55 PM 17.6 °F 10.7 °F 17.6 °F 100% 30.23 in 10.0 mi East 4.6 mph - N/A   Mostly Cloudy
11:35 PM 19.4 °F 12.8 °F 19.4 °F 100% 30.24 in 10.0 mi SE 4.6 mph - N/A   Overcast
11:55 PM 19.4 °F 14.3 °F 19.4 °F 100% 30.24 in 10.0 mi SSE 3.5 mph - N/A   Overcast